Time,TemperatureF,DewpointF,PressureIn,WindDirection,WindDirectionDegrees,WindSpeedMPH,WindSpeedGustMPH,Humidity,HourlyPrecipIn,Conditions,Clouds,dailyrainin,SoftwareType,DateUTC
2013-02-25 00:00:00,25.4,20.7,30.10,North,0,0.0,0.0,82,0.00,,,0.00,WUHU216HW,2013-02-25 05:00:00,
2013-02-25 00:02:00,25.4,20.7,30.10,North,0,0.0,0.0,82,0.00,,,0.00,WUHU216HW,2013-02-25 05:02:00,
2013-02-25 00:03:00,25.4,20.7,30.10,North,0,0.0,0.0,82,0.00,,,0.00,WUHU216HW,2013-02-25 05:03:00,
2013-02-25 00:05:00,25.4,20.7,30.10,North,0,0.0,0.0,82,0.00,,,0.00,WUHU216HW,2013-02-25 05:05:00,
2013-02-25 00:10:00,25.4,20.7,30.10,North,0,0.0,0.0,82,0.00,,,0.00,WUHU216HW,2013-02-25 05:10:00,
2013-02-25 00:16:00,25.6,20.8,30.11,West,270,0.4,0.4,82,0.00,,,0.00,WUHU216HW,2013-02-25 05:16:00,
2013-02-25 00:21:00,25.6,20.8,30.11,North,0,0.0,0.0,82,0.00,,,0.00,WUHU216HW,2013-02-25 05:21:00,
2013-02-25 00:26:00,25.6,20.8,30.11,North,0,0.0,0.0,82,0.00,,,0.00,WUHU216HW,2013-02-25 05:26:00,
2013-02-25 00:31:00,25.6,20.8,30.11,WSW,248,1.7,2.2,82,0.00,,,0.00,WUHU216HW,2013-02-25 05:31:00,
2013-02-25 00:36:00,25.6,20.8,30.11,WSW,251,0.5,1.1,82,0.00,,,0.00,WUHU216HW,2013-02-25 05:36:00,
2013-02-25 00:41:00,25.7,21.0,30.11,North,0,0.0,0.0,82,0.00,,,0.00,WUHU216HW,2013-02-25 05:41:00,
2013-02-25 00:46:00,25.7,21.0,30.11,WSW,248,0.2,0.7,82,0.00,,,0.00,WUHU216HW,2013-02-25 05:46:00,
2013-02-25 00:51:00,25.9,21.2,30.12,SW,232,0.9,1.1,82,0.00,,,0.00,WUHU216HW,2013-02-25 05:51:00,
2013-02-25 00:56:00,25.9,21.2,30.12,SW,234,0.4,0.7,82,0.00,,,0.00,WUHU216HW,2013-02-25 05:56:00,
2013-02-25 01:01:00,25.9,21.2,30.11,North,0,0.0,0.0,82,0.00,,,0.00,WUHU216HW,2013-02-25 06:01:00,
2013-02-25 01:06:00,25.9,21.2,30.11,North,0,0.0,0.0,82,0.00,,,0.00,WUHU216HW,2013-02-25 06:06:00,
2013-02-25 01:11:00,25.9,21.2,30.12,SW,225,0.2,0.7,82,0.00,,,0.00,WUHU216HW,2013-02-25 06:11:00,
2013-02-25 01:16:00,25.9,21.2,30.12,North,0,0.0,0.0,82,0.00,,,0.00,WUHU216HW,2013-02-25 06:16:00,
2013-02-25 01:21:00,25.7,21.0,30.12,North,0,0.0,0.0,82,0.00,,,0.00,WUHU216HW,2013-02-25 06:21:00,
2013-02-25 01:26:00,25.6,20.8,30.12,North,0,0.0,0.0,82,0.00,,,0.00,WUHU216HW,2013-02-25 06:26:00,
2013-02-25 01:31:00,25.6,20.8,30.12,SW,225,0.3,0.4,82,0.00,,,0.00,WUHU216HW,2013-02-25 06:31:00,
2013-02-25 01:36:00,25.6,20.8,30.12,SW,222,0.2,0.4,82,0.00,,,0.00,WUHU216HW,2013-02-25 06:36:00,
2013-02-25 01:41:00,25.4,20.7,30.12,WSW,248,0.0,0.2,82,0.00,,,0.00,WUHU216HW,2013-02-25 06:41:00,
2013-02-25 01:46:00,25.6,21.1,30.12,WSW,237,0.2,0.4,83,0.00,,,0.00,WUHU216HW,2013-02-25 06:46:00,
2013-02-25 01:51:00,25.6,21.1,30.12,North,0,0.0,0.0,83,0.00,,,0.00,WUHU216HW,2013-02-25 06:51:00,
2013-02-25 01:56:00,25.9,21.4,30.12,SW,225,0.4,0.7,83,0.00,,,0.00,WUHU216HW,2013-02-25 06:56:00,
2013-02-25 02:01:00,25.9,21.4,30.13,North,0,0.0,0.0,83,0.00,,,0.00,WUHU216HW,2013-02-25 07:01:00,
2013-02-25 02:06:00,26.1,21.6,30.13,North,0,0.0,0.0,83,0.00,,,0.00,WUHU216HW,2013-02-25 07:06:00,
2013-02-25 02:11:00,26.3,22.1,30.13,North,0,0.0,0.0,84,0.00,,,0.00,WUHU216HW,2013-02-25 07:11:00,
2013-02-25 02:16:00,26.3,22.1,30.13,North,0,0.0,0.0,84,0.00,,,0.00,WUHU216HW,2013-02-25 07:16:00,
2013-02-25 02:21:00,26.3,22.1,30.13,North,0,0.0,0.0,84,0.00,,,0.00,WUHU216HW,2013-02-25 07:21:00,
2013-02-25 02:26:00,26.3,22.1,30.13,North,0,0.0,0.0,84,0.00,,,0.00,WUHU216HW,2013-02-25 07:26:00,
2013-02-25 02:31:00,26.3,22.1,30.13,North,0,0.0,0.0,84,0.00,,,0.00,WUHU216HW,2013-02-25 07:31:00,
2013-02-25 02:36:00,26.3,22.1,30.13,North,0,0.0,0.0,84,0.00,,,0.00,WUHU216HW,2013-02-25 07:36:00,
2013-02-25 02:41:00,26.5,22.2,30.13,North,0,0.0,0.0,84,0.00,,,0.00,WUHU216HW,2013-02-25 07:41:00,
2013-02-25 02:46:00,26.5,22.2,30.12,North,0,0.0,0.0,84,0.00,,,0.00,WUHU216HW,2013-02-25 07:46:00,
2013-02-25 02:52:00,26.5,22.2,30.13,North,0,0.0,0.0,84,0.00,,,0.00,WUHU216HW,2013-02-25 07:52:00,
2013-02-25 02:57:00,26.5,22.2,30.12,North,0,0.0,0.0,84,0.00,,,0.00,WUHU216HW,2013-02-25 07:57:00,
2013-02-25 03:02:00,26.5,22.2,30.12,North,0,0.0,0.0,84,0.00,,,0.00,WUHU216HW,2013-02-25 08:02:00,
2013-02-25 03:07:00,26.3,22.1,30.12,North,0,0.0,0.0,84,0.00,,,0.00,WUHU216HW,2013-02-25 08:07:00,
2013-02-25 03:12:00,26.5,22.2,30.12,North,0,0.0,0.0,84,0.00,,,0.00,WUHU216HW,2013-02-25 08:12:00,
2013-02-25 03:17:00,26.5,22.2,30.12,North,0,0.0,0.0,84,0.00,,,0.00,WUHU216HW,2013-02-25 08:17:00,
2013-02-25 03:22:00,26.5,22.0,30.12,North,0,0.0,0.0,83,0.00,,,0.00,WUHU216HW,2013-02-25 08:22:00,
2013-02-25 03:27:00,26.5,22.2,30.12,North,0,0.0,0.0,84,0.00,,,0.00,WUHU216HW,2013-02-25 08:27:00,
2013-02-25 03:32:00,26.3,22.1,30.12,North,0,0.0,0.0,84,0.00,,,0.00,WUHU216HW,2013-02-25 08:32:00,
2013-02-25 03:37:00,26.3,21.8,30.12,North,0,0.0,0.0,83,0.00,,,0.00,WUHU216HW,2013-02-25 08:37:00,
2013-02-25 03:42:00,26.3,21.8,30.12,North,0,0.0,0.0,83,0.00,,,0.00,WUHU216HW,2013-02-25 08:42:00,
2013-02-25 03:47:00,26.3,21.8,30.12,North,0,0.0,0.0,83,0.00,,,0.00,WUHU216HW,2013-02-25 08:47:00,
2013-02-25 03:52:00,26.3,21.8,30.12,North,0,0.0,0.0,83,0.00,,,0.00,WUHU216HW,2013-02-25 08:52:00,
2013-02-25 03:57:00,26.3,21.8,30.12,SW,222,0.7,0.9,83,0.00,,,0.00,WUHU216HW,2013-02-25 08:57:00,
2013-02-25 04:02:00,26.3,21.8,30.12,North,0,0.0,0.0,83,0.00,,,0.00,WUHU216HW,2013-02-25 09:02:00,
2013-02-25 04:07:00,26.5,22.2,30.12,SW,225,0.4,0.7,84,0.00,,,0.00,WUHU216HW,2013-02-25 09:07:00,
2013-02-25 04:12:00,26.5,22.2,30.12,North,0,0.0,0.0,84,0.00,,,0.00,WUHU216HW,2013-02-25 09:12:00,
2013-02-25 04:17:00,26.6,22.4,30.12,North,0,0.0,0.0,84,0.00,,,0.00,WUHU216HW,2013-02-25 09:17:00,
2013-02-25 04:22:00,26.6,22.4,30.12,North,0,0.0,0.0,84,0.00,,,0.00,WUHU216HW,2013-02-25 09:22:00,
2013-02-25 04:27:00,26.6,22.4,30.12,North,0,0.0,0.0,84,0.00,,,0.00,WUHU216HW,2013-02-25 09:27:00,
2013-02-25 04:32:00,26.5,22.2,30.12,North,0,0.0,0.0,84,0.00,,,0.00,WUHU216HW,2013-02-25 09:32:00,
2013-02-25 04:37:00,26.5,22.2,30.12,North,0,0.0,0.0,84,0.00,,,0.00,WUHU216HW,2013-02-25 09:37:00,
2013-02-25 04:42:00,26.5,22.2,30.12,North,0,0.0,0.0,84,0.00,,,0.00,WUHU216HW,2013-02-25 09:42:00,
2013-02-25 04:47:00,26.5,22.2,30.12,North,0,0.0,0.0,84,0.00,,,0.00,WUHU216HW,2013-02-25 09:47:00,
2013-02-25 04:52:00,26.6,22.4,30.12,North,0,0.0,0.0,84,0.00,,,0.00,WUHU216HW,2013-02-25 09:52:00,
2013-02-25 04:57:00,26.5,22.2,30.12,North,0,0.0,0.0,84,0.00,,,0.00,WUHU216HW,2013-02-25 09:57:00,
2013-02-25 05:02:00,26.6,22.4,30.12,North,0,0.0,0.0,84,0.00,,,0.00,WUHU216HW,2013-02-25 10:02:00,
2013-02-25 05:07:00,26.5,22.2,30.12,North,0,0.0,0.0,84,0.00,,,0.00,WUHU216HW,2013-02-25 10:07:00,
2013-02-25 05:12:00,26.3,22.1,30.12,North,0,0.0,0.0,84,0.00,,,0.00,WUHU216HW,2013-02-25 10:12:00,
2013-02-25 05:17:00,26.3,22.1,30.12,ESE,113,0.4,0.4,84,0.00,,,0.00,WUHU216HW,2013-02-25 10:17:00,
2013-02-25 05:22:00,26.3,22.1,30.12,North,0,0.0,0.0,84,0.00,,,0.00,WUHU216HW,2013-02-25 10:22:00,
2013-02-25 05:28:00,26.3,22.1,30.12,North,0,0.0,0.0,84,0.00,,,0.00,WUHU216HW,2013-02-25 10:28:00,
2013-02-25 05:33:00,26.3,22.1,30.12,North,0,0.0,0.0,84,0.00,,,0.00,WUHU216HW,2013-02-25 10:33:00,
2013-02-25 05:38:00,26.1,21.9,30.13,North,0,0.2,0.4,84,0.00,,,0.00,WUHU216HW,2013-02-25 10:38:00,
2013-02-25 05:43:00,26.1,21.9,30.13,North,0,0.0,0.0,84,0.00,,,0.00,WUHU216HW,2013-02-25 10:43:00,
2013-02-25 05:48:00,26.1,21.9,30.13,North,0,0.0,0.0,84,0.00,,,0.00,WUHU216HW,2013-02-25 10:48:00,
2013-02-25 05:53:00,25.9,21.7,30.13,North,0,0.0,0.0,84,0.00,,,0.00,WUHU216HW,2013-02-25 10:53:00,
2013-02-25 05:58:00,25.9,21.7,30.13,North,0,0.0,0.0,84,0.00,,,0.00,WUHU216HW,2013-02-25 10:58:00,
2013-02-25 06:03:00,25.9,21.7,30.13,North,0,0.0,0.0,84,0.00,,,0.00,WUHU216HW,2013-02-25 11:03:00,
2013-02-25 06:08:00,25.9,21.7,30.13,North,0,0.0,0.0,84,0.00,,,0.00,WUHU216HW,2013-02-25 11:08:00,
2013-02-25 06:13:00,25.9,21.7,30.14,North,0,0.0,0.0,84,0.00,,,0.00,WUHU216HW,2013-02-25 11:13:00,
2013-02-25 06:18:00,26.1,21.9,30.14,North,0,0.0,0.0,84,0.00,,,0.00,WUHU216HW,2013-02-25 11:18:00,
2013-02-25 06:23:00,26.1,21.9,30.14,North,0,0.0,0.0,84,0.00,,,0.00,WUHU216HW,2013-02-25 11:23:00,
2013-02-25 06:28:00,25.9,22.0,30.14,North,0,0.0,0.0,85,0.00,,,0.00,WUHU216HW,2013-02-25 11:28:00,
2013-02-25 06:33:00,25.9,22.0,30.14,North,0,0.0,0.0,85,0.00,,,0.00,WUHU216HW,2013-02-25 11:33:00,
2013-02-25 06:38:00,25.6,21.4,30.15,SSW,203,0.6,0.9,84,0.00,,,0.00,WUHU216HW,2013-02-25 11:38:00,
2013-02-25 06:43:00,25.4,21.3,30.15,SSW,203,0.1,0.4,84,0.00,,,0.00,WUHU216HW,2013-02-25 11:43:00,
2013-02-25 06:48:00,25.4,21.5,30.15,North,0,0.0,0.0,85,0.00,,,0.00,WUHU216HW,2013-02-25 11:48:00,
2013-02-25 06:53:00,25.2,21.3,30.16,SSW,203,0.8,0.9,85,0.00,,,0.00,WUHU216HW,2013-02-25 11:53:00,
2013-02-25 06:58:00,25.0,21.2,30.16,North,0,0.0,0.0,85,0.00,,,0.00,WUHU216HW,2013-02-25 11:58:00,
2013-02-25 07:03:00,25.0,21.2,30.16,North,0,0.0,0.0,85,0.00,,,0.00,WUHU216HW,2013-02-25 12:03:00,
2013-02-25 07:08:00,25.0,21.2,30.16,SW,225,0.4,0.7,85,0.00,,,0.00,WUHU216HW,2013-02-25 12:08:00,
2013-02-25 07:13:00,25.0,21.2,30.16,North,0,0.0,0.0,85,0.00,,,0.00,WUHU216HW,2013-02-25 12:13:00,
2013-02-25 07:18:00,25.0,21.2,30.16,North,0,0.0,0.0,85,0.00,,,0.00,WUHU216HW,2013-02-25 12:18:00,
2013-02-25 07:23:00,24.8,21.0,30.16,North,0,0.0,0.0,85,0.00,,,0.00,WUHU216HW,2013-02-25 12:23:00,
2013-02-25 07:28:00,25.0,21.2,30.16,SE,135,0.1,0.4,85,0.00,,,0.00,WUHU216HW,2013-02-25 12:28:00,
2013-02-25 07:33:00,25.2,21.3,30.16,North,0,0.0,0.0,85,0.00,,,0.00,WUHU216HW,2013-02-25 12:33:00,
2013-02-25 07:38:00,25.2,21.3,30.16,North,0,0.0,0.0,85,0.00,,,0.00,WUHU216HW,2013-02-25 12:38:00,
2013-02-25 07:43:00,25.4,21.5,30.16,North,0,0.0,0.0,85,0.00,,,0.00,WUHU216HW,2013-02-25 12:43:00,
2013-02-25 07:48:00,25.6,21.7,30.16,North,0,0.0,0.0,85,0.00,,,0.00,WUHU216HW,2013-02-25 12:48:00,
2013-02-25 07:53:00,25.7,21.9,30.16,North,0,0.0,0.0,85,0.00,,,0.00,WUHU216HW,2013-02-25 12:53:00,
2013-02-25 07:59:00,25.9,22.0,30.17,North,0,0.0,0.0,85,0.00,,,0.00,WUHU216HW,2013-02-25 12:59:00,
2013-02-25 08:04:00,26.3,22.3,30.17,North,0,0.0,0.0,85,0.00,,,0.00,WUHU216HW,2013-02-25 13:04:00,
2013-02-25 08:09:00,26.6,22.7,30.17,North,0,0.0,0.0,85,0.00,,,0.00,WUHU216HW,2013-02-25 13:09:00,
2013-02-25 08:14:00,27.0,23.0,30.18,North,0,0.0,0.0,85,0.00,,,0.00,WUHU216HW,2013-02-25 13:14:00,
2013-02-25 08:19:00,27.5,23.6,30.18,North,0,0.0,0.0,85,0.00,,,0.00,WUHU216HW,2013-02-25 13:19:00,
2013-02-25 08:25:00,27.9,23.9,30.18,North,0,0.0,0.0,85,0.00,,,0.00,WUHU216HW,2013-02-25 13:25:00,
2013-02-25 08:30:00,28.4,24.8,30.18,WSW,248,0.5,0.7,86,0.00,,,0.00,WUHU216HW,2013-02-25 13:30:00,
2013-02-25 08:35:00,29.0,25.3,30.18,SW,228,0.5,0.7,86,0.00,,,0.00,WUHU216HW,2013-02-25 13:35:00,
2013-02-25 08:40:00,29.5,25.6,30.18,WSW,246,0.8,1.3,85,0.00,,,0.00,WUHU216HW,2013-02-25 13:40:00,
2013-02-25 08:45:00,29.9,25.9,30.18,SW,225,0.3,0.4,85,0.00,,,0.00,WUHU216HW,2013-02-25 13:45:00,
2013-02-25 08:50:00,30.6,26.6,30.19,SW,225,0.4,0.7,85,0.00,,,0.00,WUHU216HW,2013-02-25 13:50:00,
2013-02-25 08:55:00,31.0,26.7,30.18,SW,225,0.4,0.7,84,0.00,,,0.00,WUHU216HW,2013-02-25 13:55:00,
2013-02-25 09:00:00,31.7,27.5,30.18,North,0,0.0,0.0,84,0.00,,,0.00,WUHU216HW,2013-02-25 14:00:00,
2013-02-25 09:06:00,32.6,28.0,30.18,North,0,0.0,0.0,83,0.00,,,0.00,WUHU216HW,2013-02-25 14:06:00,
2013-02-25 09:11:00,33.5,28.8,30.18,North,0,0.0,0.0,83,0.00,,,0.00,WUHU216HW,2013-02-25 14:11:00,
2013-02-25 09:17:00,34.0,29.0,30.18,North,0,0.0,0.0,82,0.00,,,0.00,WUHU216HW,2013-02-25 14:17:00,
2013-02-25 09:22:00,34.4,29.1,30.18,SE,135,0.1,0.2,81,0.00,,,0.00,WUHU216HW,2013-02-25 14:22:00,
2013-02-25 09:27:00,35.1,29.5,30.18,SSW,203,1.9,2.2,80,0.00,,,0.00,WUHU216HW,2013-02-25 14:27:00,
2013-02-25 09:32:00,35.1,28.9,30.18,SW,224,1.6,3.4,78,0.00,,,0.00,WUHU216HW,2013-02-25 14:32:00,
2013-02-25 09:37:00,35.1,28.9,30.18,SSW,198,2.3,2.5,78,0.00,,,0.00,WUHU216HW,2013-02-25 14:37:00,
2013-02-25 09:42:00,35.3,28.7,30.18,SW,231,1.5,2.0,77,0.00,,,0.00,WUHU216HW,2013-02-25 14:42:00,
2013-02-25 09:47:00,35.1,28.3,30.17,SW,227,2.3,2.9,76,0.00,,,0.00,WUHU216HW,2013-02-25 14:47:00,
2013-02-25 09:52:00,35.3,28.5,30.17,SW,221,1.7,1.8,76,0.00,,,0.00,WUHU216HW,2013-02-25 14:52:00,
2013-02-25 09:57:00,35.8,29.0,30.17,SW,225,2.4,2.7,76,0.00,,,0.00,WUHU216HW,2013-02-25 14:57:00,
2013-02-25 10:02:00,36.2,29.4,30.16,SW,225,1.7,1.8,76,0.00,,,0.00,WUHU216HW,2013-02-25 15:02:00,
2013-02-25 10:07:00,36.9,30.3,30.16,SW,225,0.2,0.4,77,0.00,,,0.00,WUHU216HW,2013-02-25 15:07:00,
2013-02-25 10:12:00,38.0,31.1,30.16,ESE,122,1.1,1.8,76,0.00,,,0.00,WUHU216HW,2013-02-25 15:12:00,
2013-02-25 10:18:00,38.5,31.0,30.16,SSW,206,2.0,2.5,74,0.00,,,0.00,WUHU216HW,2013-02-25 15:18:00,
2013-02-25 10:23:00,38.9,30.6,30.16,SSW,209,3.2,3.6,72,0.00,,,0.00,WUHU216HW,2013-02-25 15:23:00,
2013-02-25 10:28:00,38.9,30.2,30.16,SW,235,3.0,3.4,71,0.00,,,0.00,WUHU216HW,2013-02-25 15:28:00,
2013-02-25 10:33:00,38.7,29.8,30.16,SW,235,1.8,2.0,70,0.00,,,0.00,WUHU216HW,2013-02-25 15:33:00,
2013-02-25 10:38:00,38.9,29.9,30.16,SW,227,4.0,4.7,70,0.00,,,0.00,WUHU216HW,2013-02-25 15:38:00,
2013-02-25 10:43:00,39.2,30.2,30.17,SSW,213,1.6,2.5,70,0.00,,,0.00,WUHU216HW,2013-02-25 15:43:00,
2013-02-25 10:48:00,40.0,31.0,30.17,SW,235,1.4,2.2,70,0.00,,,0.00,WUHU216HW,2013-02-25 15:48:00,
2013-02-25 10:53:00,40.3,30.6,30.17,WSW,239,1.6,2.2,68,0.00,,,0.00,WUHU216HW,2013-02-25 15:53:00,
2013-02-25 10:58:00,40.7,30.5,30.17,SW,232,2.3,2.7,67,0.00,,,0.00,WUHU216HW,2013-02-25 15:58:00,
2013-02-25 11:03:00,41.2,30.3,30.16,SE,137,2.7,3.6,65,0.00,,,0.00,WUHU216HW,2013-02-25 16:03:00,
2013-02-25 11:08:00,40.7,29.1,30.15,ENE,78,0.3,0.4,63,0.00,,,0.00,WUHU216HW,2013-02-25 16:08:00,
2013-02-25 11:13:00,40.9,29.6,30.15,SE,138,0.7,1.3,64,0.00,,,0.00,WUHU216HW,2013-02-25 16:13:00,
2013-02-25 11:18:00,41.4,29.7,30.15,SSE,163,2.2,3.8,63,0.00,,,0.00,WUHU216HW,2013-02-25 16:18:00,
2013-02-25 11:23:00,41.6,29.5,30.16,ESE,113,3.8,5.6,62,0.00,,,0.00,WUHU216HW,2013-02-25 16:23:00,
2013-02-25 11:28:00,41.4,29.0,30.16,SE,126,2.4,3.4,61,0.00,,,0.00,WUHU216HW,2013-02-25 16:28:00,
2013-02-25 11:33:00,41.8,29.3,30.16,South,180,2.3,3.1,61,0.00,,,0.00,WUHU216HW,2013-02-25 16:33:00,
2013-02-25 11:38:00,42.1,29.3,30.16,South,191,1.2,1.3,60,0.00,,,0.00,WUHU216HW,2013-02-25 16:38:00,
2013-02-25 11:43:00,42.7,29.7,30.16,ESE,104,1.8,3.4,60,0.00,,,0.00,WUHU216HW,2013-02-25 16:43:00,
2013-02-25 11:48:00,42.7,28.9,30.16,South,179,2.5,3.1,58,0.00,,,0.00,WUHU216HW,2013-02-25 16:48:00,
2013-02-25 11:53:00,43.0,29.2,30.16,SSW,205,2.1,2.5,58,0.00,,,0.00,WUHU216HW,2013-02-25 16:53:00,
2013-02-25 11:58:00,43.4,29.5,30.17,WSW,242,2.9,3.1,58,0.00,,,0.00,WUHU216HW,2013-02-25 16:58:00,
2013-02-25 12:03:00,43.4,29.5,30.17,WSW,240,1.1,2.9,58,0.00,,,0.00,WUHU216HW,2013-02-25 17:03:00,
2013-02-25 12:08:00,43.6,28.8,30.17,SSW,209,3.5,5.4,56,0.00,,,0.00,WUHU216HW,2013-02-25 17:08:00,
2013-02-25 12:13:00,43.6,29.3,30.17,SSW,207,2.9,4.5,57,0.00,,,0.00,WUHU216HW,2013-02-25 17:13:00,
2013-02-25 12:19:00,43.9,29.2,30.17,WSW,254,4.4,5.4,56,0.00,,,0.00,WUHU216HW,2013-02-25 17:19:00,
2013-02-25 12:24:00,43.9,28.7,30.16,WSW,244,4.3,6.0,55,0.00,,,0.00,WUHU216HW,2013-02-25 17:24:00,
2013-02-25 12:29:00,43.9,29.2,30.16,South,187,4.6,4.9,56,0.00,,,0.00,WUHU216HW,2013-02-25 17:29:00,
2013-02-25 12:34:00,43.6,28.8,30.16,SSW,213,1.2,2.0,56,0.00,,,0.00,WUHU216HW,2013-02-25 17:34:00,
2013-02-25 12:39:00,43.2,28.5,30.16,SW,216,3.1,4.3,56,0.00,,,0.00,WUHU216HW,2013-02-25 17:39:00,
2013-02-25 12:44:00,43.6,28.5,30.15,WSW,246,3.1,4.9,55,0.00,,,0.00,WUHU216HW,2013-02-25 17:44:00,
2013-02-25 12:49:00,42.8,27.7,30.15,WSW,237,3.3,3.8,55,0.00,,,0.00,WUHU216HW,2013-02-25 17:49:00,
2013-02-25 12:54:00,43.0,28.4,30.15,West,261,1.2,4.0,56,0.00,,,0.00,WUHU216HW,2013-02-25 17:54:00,
2013-02-25 12:59:00,43.7,28.6,30.15,SW,220,3.1,4.3,55,0.00,,,0.00,WUHU216HW,2013-02-25 17:59:00,
2013-02-25 13:04:00,44.5,29.3,30.14,West,265,4.4,4.5,55,0.00,,,0.00,WUHU216HW,2013-02-25 18:04:00,
2013-02-25 13:09:00,44.5,29.3,30.14,SSE,149,2.1,2.7,55,0.00,,,0.00,WUHU216HW,2013-02-25 18:09:00,
2013-02-25 13:14:00,44.6,29.4,30.14,SE,130,1.3,1.8,55,0.00,,,0.00,WUHU216HW,2013-02-25 18:14:00,
2013-02-25 13:19:00,44.8,29.2,30.13,SW,225,2.5,3.1,54,0.00,,,0.00,WUHU216HW,2013-02-25 18:19:00,
2013-02-25 13:24:00,44.5,28.4,30.13,WSW,248,1.8,3.4,53,0.00,,,0.00,WUHU216HW,2013-02-25 18:24:00,
2013-02-25 13:29:00,44.1,28.4,30.13,ENE,68,0.1,0.4,54,0.00,,,0.00,WUHU216HW,2013-02-25 18:29:00,
2013-02-25 13:34:00,44.1,28.0,30.13,WNW,290,3.3,4.7,53,0.00,,,0.00,WUHU216HW,2013-02-25 18:34:00,
2013-02-25 13:39:00,43.9,28.3,30.13,WSW,245,4.3,5.1,54,0.00,,,0.00,WUHU216HW,2013-02-25 18:39:00,
2013-02-25 13:44:00,44.3,28.6,30.12,WSW,257,3.3,3.8,54,0.00,,,0.00,WUHU216HW,2013-02-25 18:44:00,
2013-02-25 13:49:00,44.8,29.2,30.12,West,264,2.3,2.9,54,0.00,,,0.00,WUHU216HW,2013-02-25 18:49:00,
2013-02-25 13:54:00,45.2,29.9,30.12,SW,220,2.8,4.0,55,0.00,,,0.00,WUHU216HW,2013-02-25 18:54:00,
2013-02-25 13:59:00,45.0,29.4,30.12,ESE,116,3.2,4.5,54,0.00,,,0.00,WUHU216HW,2013-02-25 18:59:00,
2013-02-25 14:04:00,43.9,27.5,30.12,SSE,156,0.7,1.6,52,0.00,,,0.00,WUHU216HW,2013-02-25 19:04:00,
2013-02-25 14:09:00,44.3,28.2,30.11,SSE,165,1.6,2.9,53,0.00,,,0.00,WUHU216HW,2013-02-25 19:09:00,
2013-02-25 14:14:00,44.5,28.4,30.11,South,178,0.5,2.9,53,0.00,,,0.00,WUHU216HW,2013-02-25 19:14:00,
2013-02-25 14:19:00,44.6,28.5,30.11,South,180,1.6,1.8,53,0.00,,,0.00,WUHU216HW,2013-02-25 19:19:00,
2013-02-25 14:24:00,44.8,28.7,30.11,SE,143,2.9,3.4,53,0.00,,,0.00,WUHU216HW,2013-02-25 19:24:00,
2013-02-25 14:29:00,44.5,28.4,30.10,SE,135,4.8,6.3,53,0.00,,,0.00,WUHU216HW,2013-02-25 19:29:00,
2013-02-25 14:34:00,44.1,28.0,30.11,ESE,110,1.9,3.4,53,0.00,,,0.00,WUHU216HW,2013-02-25 19:34:00,
2013-02-25 14:39:00,44.1,28.0,30.11,SE,142,1.9,2.9,53,0.00,,,0.00,WUHU216HW,2013-02-25 19:39:00,
2013-02-25 14:44:00,44.5,28.4,30.11,SW,225,1.0,1.3,53,0.00,,,0.00,WUHU216HW,2013-02-25 19:44:00,
2013-02-25 14:49:00,44.8,28.7,30.11,SW,225,3.4,3.8,53,0.00,,,0.00,WUHU216HW,2013-02-25 19:49:00,
2013-02-25 14:55:00,45.0,29.4,30.11,SW,223,3.2,3.4,54,0.00,,,0.00,WUHU216HW,2013-02-25 19:55:00,
2013-02-25 15:00:00,45.2,29.4,30.11,SE,139,1.5,1.8,54,0.00,,,0.00,WUHU216HW,2013-02-25 20:00:00,
2013-02-25 15:05:00,45.0,28.9,30.11,SW,234,2.1,3.1,53,0.00,,,0.00,WUHU216HW,2013-02-25 20:05:00,
2013-02-25 15:10:00,45.2,29.4,30.11,SE,140,2.0,3.1,54,0.00,,,0.00,WUHU216HW,2013-02-25 20:10:00,
2013-02-25 15:15:00,45.2,29.0,30.11,West,268,3.5,4.5,53,0.00,,,0.00,WUHU216HW,2013-02-25 20:15:00,
2013-02-25 15:20:00,45.2,29.0,30.11,SW,231,4.0,5.1,53,0.00,,,0.00,WUHU216HW,2013-02-25 20:20:00,
2013-02-25 15:25:00,45.2,29.4,30.11,SE,128,1.4,2.0,54,0.00,,,0.00,WUHU216HW,2013-02-25 20:25:00,
2013-02-25 15:30:00,45.2,29.0,30.11,East,81,2.4,3.8,53,0.00,,,0.00,WUHU216HW,2013-02-25 20:30:00,
2013-02-25 15:35:00,44.3,27.7,30.11,North,350,0.3,0.9,52,0.00,,,0.00,WUHU216HW,2013-02-25 20:35:00,
2013-02-25 15:40:00,44.3,28.2,30.11,SW,216,4.1,4.7,53,0.00,,,0.00,WUHU216HW,2013-02-25 20:40:00,
2013-02-25 15:45:00,44.5,28.4,30.11,SE,135,1.8,2.9,53,0.00,,,0.00,WUHU216HW,2013-02-25 20:45:00,
2013-02-25 15:50:00,44.6,28.5,30.11,North,3,1.6,2.0,53,0.00,,,0.00,WUHU216HW,2013-02-25 20:50:00,
2013-02-25 15:55:00,44.3,27.7,30.11,West,264,2.2,2.5,52,0.00,,,0.00,WUHU216HW,2013-02-25 20:55:00,
2013-02-25 16:00:00,44.5,28.4,30.11,WNW,282,1.1,1.6,53,0.00,,,0.00,WUHU216HW,2013-02-25 21:00:00,
2013-02-25 16:05:00,44.8,28.7,30.10,WSW,237,1.8,2.5,53,0.00,,,0.00,WUHU216HW,2013-02-25 21:05:00,
2013-02-25 16:10:00,44.8,28.7,30.11,North,0,0.2,0.4,53,0.00,,,0.00,WUHU216HW,2013-02-25 21:10:00,
2013-02-25 16:15:00,44.3,27.7,30.11,WNW,294,0.6,0.9,52,0.00,,,0.00,WUHU216HW,2013-02-25 21:15:00,
2013-02-25 16:20:00,44.1,27.5,30.10,North,2,2.4,2.5,52,0.00,,,0.00,WUHU216HW,2013-02-25 21:20:00,
2013-02-25 16:25:00,43.9,27.5,30.10,ENE,69,0.3,0.4,52,0.00,,,0.00,WUHU216HW,2013-02-25 21:25:00,
2013-02-25 16:30:00,44.1,28.0,30.10,ENE,77,0.7,1.3,53,0.00,,,0.00,WUHU216HW,2013-02-25 21:30:00,
2013-02-25 16:35:00,43.9,27.5,30.10,North,1,0.7,1.3,52,0.00,,,0.00,WUHU216HW,2013-02-25 21:35:00,
2013-02-25 16:40:00,44.1,28.0,30.10,WSW,237,1.9,2.5,53,0.00,,,0.00,WUHU216HW,2013-02-25 21:40:00,
2013-02-25 16:45:00,43.9,27.5,30.10,East,88,1.4,2.2,52,0.00,,,0.00,WUHU216HW,2013-02-25 21:45:00,
2013-02-25 16:50:00,43.6,27.6,30.09,North,0,2.4,3.1,53,0.00,,,0.00,WUHU216HW,2013-02-25 21:50:00,
2013-02-25 16:55:00,43.4,27.4,30.09,North,356,1.0,1.8,53,0.00,,,0.00,WUHU216HW,2013-02-25 21:55:00,
2013-02-25 17:00:00,43.2,27.2,30.09,West,274,0.8,1.1,53,0.00,,,0.00,WUHU216HW,2013-02-25 22:00:00,
2013-02-25 17:05:00,43.2,27.2,30.08,NW,315,0.9,1.1,53,0.00,,,0.00,WUHU216HW,2013-02-25 22:05:00,
2013-02-25 17:10:00,43.2,27.2,30.08,North,0,0.1,0.9,53,0.00,,,0.00,WUHU216HW,2013-02-25 22:10:00,
2013-02-25 17:15:00,43.2,27.2,30.08,NNE,23,0.1,0.2,53,0.00,,,0.00,WUHU216HW,2013-02-25 22:15:00,
2013-02-25 17:20:00,42.8,26.8,30.08,North,0,0.2,0.9,53,0.00,,,0.00,WUHU216HW,2013-02-25 22:20:00,
2013-02-25 17:26:00,42.7,26.6,30.08,North,357,1.2,1.6,53,0.00,,,0.00,WUHU216HW,2013-02-25 22:26:00,
2013-02-25 17:31:00,41.9,25.6,30.09,North,0,0.4,0.7,52,0.00,,,0.00,WUHU216HW,2013-02-25 22:31:00,
2013-02-25 17:36:00,41.4,25.0,30.09,ENE,68,1.0,1.8,52,0.00,,,0.00,WUHU216HW,2013-02-25 22:36:00,
2013-02-25 17:41:00,40.9,24.9,30.09,North,7,0.5,0.7,53,0.00,,,0.00,WUHU216HW,2013-02-25 22:41:00,
2013-02-25 17:46:00,40.5,24.6,30.09,East,93,1.4,1.8,53,0.00,,,0.00,WUHU216HW,2013-02-25 22:46:00,
2013-02-25 17:51:00,40.0,24.6,30.09,ENE,61,0.3,0.4,54,0.00,,,0.00,WUHU216HW,2013-02-25 22:51:00,
2013-02-25 17:56:00,39.2,23.9,30.09,North,0,0.2,0.4,54,0.00,,,0.00,WUHU216HW,2013-02-25 22:56:00,
2013-02-25 18:01:00,38.9,23.9,30.09,North,0,0.7,0.9,55,0.00,,,0.00,WUHU216HW,2013-02-25 23:01:00,
2013-02-25 18:06:00,38.3,24.0,30.09,North,0,0.4,0.9,56,0.00,,,0.00,WUHU216HW,2013-02-25 23:06:00,
2013-02-25 18:11:00,37.6,23.7,30.09,North,354,0.8,1.1,57,0.00,,,0.00,WUHU216HW,2013-02-25 23:11:00,
2013-02-25 18:16:00,37.1,23.2,30.09,North,0,0.0,0.0,57,0.00,,,0.00,WUHU216HW,2013-02-25 23:16:00,
2013-02-25 18:21:00,36.7,23.3,30.09,North,0,0.0,0.0,58,0.00,,,0.00,WUHU216HW,2013-02-25 23:21:00,
2013-02-25 18:26:00,36.2,23.3,30.09,North,0,1.1,1.6,59,0.00,,,0.00,WUHU216HW,2013-02-25 23:26:00,
2013-02-25 18:31:00,35.6,23.2,30.09,North,0,0.3,0.4,60,0.00,,,0.00,WUHU216HW,2013-02-25 23:31:00,
2013-02-25 18:36:00,35.3,22.9,30.10,NNE,18,0.4,1.1,60,0.00,,,0.00,WUHU216HW,2013-02-25 23:36:00,
2013-02-25 18:41:00,34.7,22.7,30.10,North,8,0.4,0.4,61,0.00,,,0.00,WUHU216HW,2013-02-25 23:41:00,
2013-02-25 18:46:00,34.4,22.7,30.10,NNE,19,0.9,1.1,62,0.00,,,0.00,WUHU216HW,2013-02-25 23:46:00,
2013-02-25 18:51:00,34.0,22.3,30.09,North,0,0.4,0.4,62,0.00,,,0.00,WUHU216HW,2013-02-25 23:51:00,
2013-02-25 18:56:00,33.5,22.1,30.09,ENE,68,0.1,0.4,63,0.00,,,0.00,WUHU216HW,2013-02-25 23:56:00,
2013-02-25 19:01:00,33.3,22.4,30.09,North,0,0.0,0.0,64,0.00,,,0.00,WUHU216HW,2013-02-26 00:01:00,
2013-02-25 19:07:00,33.1,22.2,30.09,ENE,68,0.1,0.2,64,0.00,,,0.00,WUHU216HW,2013-02-26 00:07:00,
2013-02-25 19:12:00,32.9,22.4,30.10,NNW,346,0.7,1.1,65,0.00,,,0.00,WUHU216HW,2013-02-26 00:12:00,
2013-02-25 19:17:00,32.6,22.4,30.10,North,0,1.1,1.3,66,0.00,,,0.00,WUHU216HW,2013-02-26 00:17:00,
2013-02-25 19:22:00,32.2,22.2,30.10,North,0,0.6,1.1,66,0.00,,,0.00,WUHU216HW,2013-02-26 00:22:00,
2013-02-25 19:27:00,32.0,22.3,30.09,North,0,0.7,1.1,67,0.00,,,0.00,WUHU216HW,2013-02-26 00:27:00,
2013-02-25 19:32:00,31.7,21.6,30.10,North,0,0.4,0.4,66,0.00,,,0.00,WUHU216HW,2013-02-26 00:32:00,
2013-02-25 19:37:00,31.5,21.8,30.10,North,0,0.2,0.4,67,0.00,,,0.00,WUHU216HW,2013-02-26 00:37:00,
2013-02-25 19:42:00,31.5,21.8,30.10,North,0,0.4,0.7,67,0.00,,,0.00,WUHU216HW,2013-02-26 00:42:00,
2013-02-25 19:47:00,31.3,21.6,30.11,North,0,0.0,0.0,67,0.00,,,0.00,WUHU216HW,2013-02-26 00:47:00,
2013-02-25 19:52:00,31.1,21.4,30.11,North,0,0.0,0.0,67,0.00,,,0.00,WUHU216HW,2013-02-26 00:52:00,
2013-02-25 19:57:00,30.8,21.4,30.11,North,0,0.0,0.0,68,0.00,,,0.00,WUHU216HW,2013-02-26 00:57:00,
2013-02-25 20:02:00,30.6,21.2,30.11,North,0,0.0,0.0,68,0.00,,,0.00,WUHU216HW,2013-02-26 01:02:00,
2013-02-25 20:07:00,30.4,21.4,30.11,North,0,0.3,0.7,69,0.00,,,0.00,WUHU216HW,2013-02-26 01:07:00,
2013-02-25 20:12:00,30.1,21.1,30.11,North,0,0.3,0.7,69,0.00,,,0.00,WUHU216HW,2013-02-26 01:12:00,
2013-02-25 20:17:00,29.7,21.2,30.10,ENE,68,0.3,0.9,70,0.00,,,0.00,WUHU216HW,2013-02-26 01:17:00,
2013-02-25 20:22:00,29.5,21.0,30.10,ENE,68,0.1,0.4,70,0.00,,,0.00,WUHU216HW,2013-02-26 01:22:00,
2013-02-25 20:28:00,29.5,21.2,30.10,North,0,0.0,0.0,71,0.00,,,0.00,WUHU216HW,2013-02-26 01:28:00,
2013-02-25 20:33:00,29.3,21.1,30.10,East,90,1.2,1.8,71,0.00,,,0.00,WUHU216HW,2013-02-26 01:33:00,
2013-02-25 20:38:00,29.5,21.6,30.09,East,79,0.7,0.9,72,0.00,,,0.00,WUHU216HW,2013-02-26 01:38:00,
2013-02-25 20:43:00,29.9,22.0,30.09,SE,131,1.2,2.0,72,0.00,,,0.00,WUHU216HW,2013-02-26 01:43:00,
2013-02-25 20:48:00,29.9,22.0,30.09,North,0,0.0,0.0,72,0.00,,,0.00,WUHU216HW,2013-02-26 01:48:00,
2013-02-25 20:53:00,29.5,21.2,30.08,North,0,0.0,0.0,71,0.00,,,0.00,WUHU216HW,2013-02-26 01:53:00,
2013-02-25 20:58:00,29.2,21.2,30.08,North,0,0.0,0.0,72,0.00,,,0.00,WUHU216HW,2013-02-26 01:58:00,
2013-02-25 21:03:00,28.8,20.9,30.07,North,0,0.0,0.0,72,0.00,,,0.00,WUHU216HW,2013-02-26 02:03:00,
2013-02-25 21:08:00,28.6,21.1,30.08,ENE,64,1.1,1.6,73,0.00,,,0.00,WUHU216HW,2013-02-26 02:08:00,
2013-02-25 21:13:00,28.4,21.3,30.07,ENE,76,1.3,1.8,74,0.00,,,0.00,WUHU216HW,2013-02-26 02:13:00,
2013-02-25 21:18:00,28.6,21.3,30.07,North,0,0.0,0.0,74,0.00,,,0.00,WUHU216HW,2013-02-26 02:18:00,
2013-02-25 21:23:00,28.4,21.3,30.07,SSE,158,0.4,0.4,74,0.00,,,0.00,WUHU216HW,2013-02-26 02:23:00,
2013-02-25 21:28:00,28.3,21.1,30.08,SE,135,1.0,1.8,74,0.00,,,0.00,WUHU216HW,2013-02-26 02:28:00,
2013-02-25 21:33:00,28.3,21.1,30.07,East,88,1.0,1.1,74,0.00,,,0.00,WUHU216HW,2013-02-26 02:33:00,
2013-02-25 21:38:00,28.3,21.1,30.07,East,90,1.1,1.1,74,0.00,,,0.00,WUHU216HW,2013-02-26 02:38:00,
2013-02-25 21:43:00,28.1,21.2,30.06,East,84,0.6,1.1,75,0.00,,,0.00,WUHU216HW,2013-02-26 02:43:00,
2013-02-25 21:48:00,27.9,21.0,30.05,North,0,0.1,0.2,75,0.00,,,0.00,WUHU216HW,2013-02-26 02:48:00,
2013-02-25 21:53:00,28.1,21.4,30.06,ENE,69,1.2,1.3,76,0.00,,,0.00,WUHU216HW,2013-02-26 02:53:00,
2013-02-25 21:58:00,28.4,21.8,30.06,East,94,1.2,1.8,76,0.00,,,0.00,WUHU216HW,2013-02-26 02:58:00,
2013-02-25 22:03:00,28.6,22.0,30.06,ESE,113,1.3,1.6,76,0.00,,,0.00,WUHU216HW,2013-02-26 03:03:00,
2013-02-25 22:08:00,28.8,21.9,30.06,SE,127,1.2,1.3,75,0.00,,,0.00,WUHU216HW,2013-02-26 03:08:00,
2013-02-25 22:13:00,28.6,21.7,30.07,North,0,0.0,0.0,75,0.00,,,0.00,WUHU216HW,2013-02-26 03:13:00,
2013-02-25 22:18:00,28.3,21.3,30.07,ESE,113,0.4,1.1,75,0.00,,,0.00,WUHU216HW,2013-02-26 03:18:00,
2013-02-25 22:23:00,28.3,21.6,30.07,ESE,113,1.8,2.9,76,0.00,,,0.00,WUHU216HW,2013-02-26 03:23:00,
2013-02-25 22:28:00,28.3,21.6,30.07,East,95,0.3,0.4,76,0.00,,,0.00,WUHU216HW,2013-02-26 03:28:00,
2013-02-25 22:33:00,28.4,21.5,30.07,East,85,1.1,1.3,75,0.00,,,0.00,WUHU216HW,2013-02-26 03:33:00,
2013-02-25 22:38:00,28.4,21.5,30.07,ESE,113,1.4,1.6,75,0.00,,,0.00,WUHU216HW,2013-02-26 03:38:00,
2013-02-25 22:44:00,28.4,21.5,30.07,ESE,116,1.2,2.2,75,0.00,,,0.00,WUHU216HW,2013-02-26 03:44:00,
2013-02-25 22:49:00,28.4,21.5,30.08,ESE,113,0.4,0.4,75,0.00,,,0.00,WUHU216HW,2013-02-26 03:49:00,
2013-02-25 22:54:00,28.4,21.5,30.08,SE,135,0.3,0.4,75,0.00,,,0.00,WUHU216HW,2013-02-26 03:54:00,
2013-02-25 22:59:00,28.3,21.3,30.08,SE,135,0.5,0.7,75,0.00,,,0.00,WUHU216HW,2013-02-26 03:59:00,
2013-02-25 23:04:00,27.7,20.8,30.08,ESE,113,1.0,1.1,75,0.00,,,0.00,WUHU216HW,2013-02-26 04:04:00,
2013-02-25 23:09:00,27.5,20.9,30.08,SE,127,0.8,1.3,76,0.00,,,0.00,WUHU216HW,2013-02-26 04:09:00,
2013-02-25 23:14:00,27.5,20.9,30.08,ESE,120,0.6,0.9,76,0.00,,,0.00,WUHU216HW,2013-02-26 04:14:00,
2013-02-25 23:19:00,27.5,20.9,30.08,ENE,61,0.4,0.4,76,0.00,,,0.00,WUHU216HW,2013-02-26 04:19:00,
2013-02-25 23:24:00,27.4,21.1,30.08,ESE,113,0.8,1.1,77,0.00,,,0.00,WUHU216HW,2013-02-26 04:24:00,
2013-02-25 23:29:00,27.4,21.1,30.08,SE,135,1.9,2.7,77,0.00,,,0.00,WUHU216HW,2013-02-26 04:29:00,
2013-02-25 23:34:00,27.5,21.3,30.08,ESE,113,1.7,1.8,77,0.00,,,0.00,WUHU216HW,2013-02-26 04:34:00,
2013-02-25 23:39:00,28.3,22.0,30.08,ESE,107,1.9,2.5,77,0.00,,,0.00,WUHU216HW,2013-02-26 04:39:00,
2013-02-25 23:44:00,28.4,22.2,30.08,ESE,113,1.6,3.1,77,0.00,,,0.00,WUHU216HW,2013-02-26 04:44:00,
2013-02-25 23:49:00,28.4,21.8,30.08,ESE,119,1.8,2.5,76,0.00,,,0.00,WUHU216HW,2013-02-26 04:49:00,
2013-02-25 23:54:00,28.3,21.6,30.08,SE,126,1.6,2.7,76,0.00,,,0.00,WUHU216HW,2013-02-26 04:54:00,
2013-02-25 23:59:00,28.1,21.4,30.08,ESE,116,1.6,1.8,76,0.00,,,0.00,WUHU216HW,2013-02-26 04:59:00,